Flag for Paraguay Weather past 2 weeks in Asuncion, Paraguay

Now
57 °F

Clear.


Feels Like: 57 °F
Forecast: 58 / 78 °F
Wind: No wind

Location: Asuncion / Aeropuerto

Current Time: Sep 21, 2014 at 2:53:18 AM

Latest Report: Sep 21, 2014 at 2:00 AM


Visibility: 6 mi

Pressure: 30.07 "Hg

Humidity: 94%

Dew point: 55 °F

Location of AsuncionLocation

Historic Weather in Asuncion — Graph

°F

Asuncion temperature yesterday

Maximum temperature yesterday: 81 °F (at 2:00 PM)
Minimum temperature yesterday: 64 °F (at 5:00 AM)
Average temperature yesterday: 70 °F

Past Weeks' High & Low Weather Summary

 TemperatureHumidityPressure
High95 °F (Sep 9, 2:00 PM)100% (Sep 7, 5:00 AM)30.15 "Hg (Sep 7, 5:00 AM)
Low36 °F (Sep 7, 7:30 AM)32% (Sep 13, 3:00 PM)29.59 "Hg (Sep 9, 4:00 PM)
Average73 °F73%29.89 "Hg
* Reported Sep 6 2:00 AM — Sep 21 2:00 AM, Asuncion, Weather by CustomWeather, © 2014

Note: Actual official high and low records may vary slightly from our data, if they occured in-between our weather recording intervals... More about our weather records

Advertising

Asuncion weather history for previous 24 hours

 ConditionsComfort  
Time TempWeatherWind HumidityBarometerVisibility
2:00 AM
Sep 21
57 °FClear.No wind94%30.07 "Hg6 mi
1:00 AM59 °FClear.2 mph88%30.09 "Hg10 mi
12:00 AM61 °FClear.No wind88%30.09 "Hg10 mi
11:00 PM
Sep 20
64 °FClear.No wind78%30.09 "Hg10 mi
10:00 PM66 °FClear.9 mph68%30.09 "Hg10 mi
9:00 PM68 °FClear.10 mph69%30.07 "Hg10 mi
8:00 PM68 °FClear.8 mph73%30.04 "Hg10 mi
7:00 PM70 °FClear.10 mph69%30.04 "Hg10 mi
6:00 PM73 °FPassing clouds.10 mph53%30.01 "HgN/A
5:00 PM75 °FPassing clouds.14 mph50%30.01 "HgN/A
4:00 PM77 °FPassing clouds.14 mph51%29.98 "HgN/A
3:00 PM81 °FPartly sunny.17 mph48%30.01 "HgN/A
2:00 PM81 °FPartly sunny.17 mph48%30.01 "HgN/A
9:30 AM75 °FPassing clouds.N/A61%30.01 "HgN/A
9:00 AM73 °FSunny.9 mph69%30.01 "Hg10 mi
8:30 AM72 °FPassing clouds.9 mph73%30.01 "HgN/A
8:10 AM72 °FPassing clouds.10 mph73%30.01 "HgN/A
8:00 AM70 °FPassing clouds.12 mph83%30.01 "HgN/A
7:30 AM68 °FPassing clouds.8 mph88%30.01 "HgN/A
7:00 AM68 °FBroken clouds.7 mph94%29.98 "HgN/A
6:00 AM66 °FFog.7 mph94%29.95 "Hg3 mi
5:00 AM64 °FFog.6 mph100%29.92 "Hg2 mi
4:00 AM66 °FFog.7 mph100%29.89 "Hg1 mi
3:30 AM66 °FFog.No wind100%29.89 "Hg1 mi
3:00 AM66 °FFog.3 mph100%29.92 "Hg1 mi
2:00 AM66 °FFog.8 mph100%29.92 "Hg1 mi
Weather by CustomWeather, © 2014

See weather overviewHow to use our weather pages